RH
20 20 19 19 18 18 18 18 18 21 21 19 18 15 13 14 17 16 16 19 20 29 34 30 29 32 32 34 38 43 44 40 39 40 41 41 40 40 41 41 38 33 32 34 36 36 35 33 31 28 23 19 13 12 15 16 19 20 24 28 30 31 32 33 34 35 36 36 37 36 35 35 36 37 38 39 39 39 42 45 46 43 37 30 26 22 20 25 32 35 31 22 21 28 32 33 34
21 21 21 20 20 20 21 22 23 24 23 21 20 16 13 13 16 15 17 23 26 32 35 33 32 36 36 35 39 42 43 44 41 41 42 41 41 42 42 41 37 32 32 34 36 36 35 34 32 29 25 20 12 12 14 17 18 20 24 28 30 32 33 34 36 37 39 39 39 37 35 35 36 38 39 39 39 39 39 40 41 38 33 26 23 20 16 17 24 30 31 29 28 28 31 33 34
22 22 22 21 21 21 23 23 24 25 23 22 21 18 16 12 13 15 20 26 29 34 34 33 36 39 39 39 43 42 43 47 44 43 44 42 42 42 40 39 35 31 31 32 36 36 36 34 32 31 27 19 12 12 14 16 18 19 24 28 31 32 34 36 38 39 40 40 40 38 37 37 39 39 40 41 40 37 34 32 33 32 31 27 22 20 19 17 18 21 28 34 34 32 31 32 33
19 20 19 20 20 22 24 24 26 25 23 23 21 18 16 14 13 14 21 27 30 35 35 35 41 43 41 45 47 44 46 47 44 44 45 43 41 39 38 36 32 30 29 31 35 35 35 34 33 33 27 19 13 12 13 16 17 19 23 27 31 33 35 37 39 40 40 40 40 40 40 39 40 41 41 41 38 34 29 27 29 30 31 30 24 21 21 19 17 16 22 32 37 38 35 32 30
14 15 15 16 18 20 22 24 27 23 19 21 19 16 16 15 15 14 20 28 29 35 37 38 45 45 43 49 47 44 46 46 46 45 43 41 38 37 36 34 31 29 29 30 34 35 35 34 35 32 24 18 14 13 13 15 17 19 23 27 30 33 35 38 39 40 40 41 42 42 42 41 42 40 39 37 35 32 29 28 28 29 30 29 25 23 22 20 19 17 19 27 35 40 40 36 31
11 11 11 12 14 16 18 21 23 21 17 17 15 13 14 16 17 17 20 26 27 32 37 39 44 46 47 50 47 44 46 46 47 43 40 38 36 35 35 33 31 30 30 31 33 35 34 35 34 30 23 18 16 14 13 14 17 19 23 26 29 32 34 37 39 39 41 42 43 44 44 43 42 39 37 35 32 32 31 31 30 29 29 27 26 26 23 20 20 21 22 25 30 37 41 40 35
8 8 10 12 12 13 16 19 18 18 16 13 12 9 10 15 19 21 23 24 25 29 34 39 42 46 50 49 47 47 46 45 43 38 38 37 35 34 33 33 32 30 29 30 33 34 34 34 33 29 24 20 18 16 14 14 16 19 22 26 28 31 33 36 38 40 42 44 45 46 46 44 41 38 37 34 32 32 32 33 33 31 30 30 29 29 26 20 20 23 27 30 30 32 38 41 39
6 7 9 12 14 13 15 16 14 15 13 11 10 8 8 11 15 19 20 20 24 30 33 38 42 47 51 48 46 45 43 41 37 35 37 36 35 35 32 31 31 30 29 31 32 33 34 34 33 30 26 22 19 17 15 13 16 19 22 25 27 30 32 35 37 39 42 44 46 47 46 44 41 38 35 34 32 30 31 32 34 33 31 32 32 32 28 23 20 23 30 34 35 34 36 40 40
6 7 9 12 13 13 14 13 11 11 10 10 9 8 8 9 13 15 16 17 22 31 36 38 40 45 50 47 44 42 39 39 36 35 36 35 36 35 33 30 30 30 29 31 31 32 33 33 33 31 29 24 20 18 15 14 16 20 23 24 26 29 32 34 37 40 42 44 46 47 47 44 40 36 33 33 32 30 30 31 32 32 31 31 33 34 31 28 24 25 30 33 36 38 39 38 38
7 9 9 11 12 12 13 12 11 10 9 9 8 7 7 7 10 12 14 15 19 30 36 37 39 44 48 47 44 41 39 38 36 35 35 35 35 35 34 31 29 28 27 29 30 32 33 32 33 32 30 26 21 19 16 15 17 21 23 24 25 29 31 34 37 40 43 45 46 47 48 43 39 36 32 32 31 31 31 31 31 31 30 30 33 36 34 32 29 29 30 32 34 37 40 38 35
9 10 9 11 12 12 12 12 11 10 10 9 8 7 7 7 8 10 12 13 20 31 36 36 40 45 46 46 43 40 39 38 36 35 35 36 35 34 35 33 29 26 25 27 28 32 33 31 32 32 31 27 22 19 17 17 19 22 23 24 26 28 32 35 38 42 45 48 47 47 48 42 39 36 32 31 32 33 32 31 30 30 30 29 32 35 35 34 34 34 34 35 36 36 37 37 34
10 12 12 13 14 13 12 12 11 10 10 9 7 7 6 7 8 9 9 13 24 34 35 34 38 43 45 45 43 40 38 37 35 35 36 36 35 34 35 34 29 25 24 25 28 31 31 31 33 33 32 29 24 21 19 20 21 22 23 26 27 29 33 36 40 44 49 51 48 47 46 43 39 35 32 32 33 34 32 30 30 31 31 30 31 33 34 34 36 39 40 40 40 37 37 37 35
12 14 13 14 14 13 13 12 11 12 11 9 7 6 8 9 8 8 8 11 26 35 34 34 35 40 45 45 44 42 38 36 35 34 36 35 34 34 34 33 29 27 26 25 29 32 32 32 34 34 33 31 27 24 21 21 21 22 24 26 28 31 34 38 42 46 50 50 48 45 43 42 39 35 34 33 35 35 33 31 31 31 32 31 31 32 33 33 34 40 45 47 44 40 39 40 39
13 13 12 13 14 13 12 11 10 10 9 8 8 8 10 11 9 9 8 11 25 31 30 32 34 40 46 47 44 42 38 36 35 34 34 34 35 35 34 33 30 28 26 26 31 35 35 34 34 33 34 33 29 26 23 21 21 22 24 26 30 33 36 40 42 44 47 45 46 45 42 41 38 36 36 34 35 36 34 33 32 32 33 32 31 31 32 33 34 40 48 51 49 44 42 43 45
13 13 14 13 13 12 11 10 10 9 9 10 9 10 12 16 18 14 8 13 25 28 27 32 31 35 42 43 42 40 38 37 34 34 35 35 36 37 36 35 33 30 28 30 35 36 35 34 33 34 35 35 32 27 23 21 20 22 24 27 31 35 39 41 42 43 43 41 43 43 41 41 40 39 37 35 36 36 34 33 33 34 34 34 31 31 31 33 35 40 46 50 51 49 45 42 44
14 13 14 13 13 12 11 10 10 10 12 12 10 11 12 19 25 18 8 11 25 30 28 32 30 31 37 38 38 38 38 36 35 35 37 38 38 38 38 36 35 33 32 35 38 37 34 33 34 36 39 38 35 30 24 21 21 23 26 30 35 38 41 40 39 41 40 39 39 37 35 36 38 39 37 35 35 34 34 32 32 34 35 34 33 32 32 32 36 40 43 46 49 51 48 43 41
14 14 15 14 13 12 11 10 10 10 13 14 12 11 12 19 26 22 15 14 25 33 29 31 31 30 34 34 34 38 38 37 36 36 37 39 39 40 40 40 39 37 37 39 40 37 35 35 36 39 41 42 40 36 30 26 25 27 30 34 37 39 38 36 37 39 37 35 34 32 31 32 33 35 35 35 34 32 32 32 31 33 35 35 34 33 32 32 34 38 42 43 45 50 51 47 42
17 17 17 14 13 11 11 11 10 12 14 15 13 14 12 19 27 25 24 24 29 33 30 32 32 32 34 32 33 38 38 38 37 36 37 38 41 43 44 44 42 41 41 42 42 38 37 37 39 40 41 43 43 41 37 33 32 32 35 38 38 36 32 32 34 35 33 32 31 30 30 31 32 33 33 34 33 30 30 30 31 32 33 35 35 34 34 33 33 36 41 42 42 48 54 52 49
19 19 18 15 14 11 10 11 11 13 15 15 14 14 13 20 30 27 27 31 32 34 33 32 33 34 36 33 35 39 39 39 37 36 37 40 43 45 46 46 42 41 42 44 44 42 40 40 42 43 43 45 46 44 41 37 36 36 36 36 34 32 29 30 32 31 30 30 29 29 30 30 31 31 33 33 32 29 27 28 29 31 32 35 36 36 36 35 35 37 39 42 42 45 53 56 56
19 18 18 16 14 11 10 10 12 14 15 16 14 14 17 26 31 28 31 33 32 34 34 33 35 37 37 36 36 40 41 40 38 36 38 42 46 47 49 47 42 41 43 45 47 46 44 42 43 44 47 49 49 46 42 40 38 37 35 33 32 31 30 30 29 29 29 29 28 29 31 32 32 34 34 34 34 32 29 28 28 29 31 34 36 37 38 38 38 39 39 41 43 44 50 55 59
19 19 19 17 14 12 10 10 13 15 15 16 14 14 20 29 33 32 34 34 33 34 31 28 32 35 38 40 39 41 43 42 38 37 41 46 48 49 49 48 46 44 44 47 49 49 48 46 46 46 48 50 49 46 43 41 40 37 35 33 32 32 32 30 29 29 30 30 31 33 34 35 36 37 38 40 40 39 36 33 32 31 32 33 35 36 38 42 43 42 41 41 42 45 48 52 56
18 20 19 16 13 12 11 12 15 15 16 15 15 14 15 24 35 37 35 35 33 33 32 30 31 31 33 38 40 42 44 42 39 40 45 48 48 49 50 50 49 46 45 46 47 47 47 47 46 46 48 48 47 45 42 41 40 38 37 35 34 34 33 33 32 32 32 34 36 38 39 39 41 42 47 50 49 47 43 40 40 40 40 40 41 40 39 43 45 42 41 41 41 44 48 52 55
19 21 18 15 13 12 12 15 16 16 16 15 15 15 14 24 37 40 37 37 35 33 36 38 38 37 37 40 42 45 45 42 41 42 47 49 49 49 51 53 50 47 47 46 44 44 44 44 45 45 46 47 46 45 43 42 41 41 40 39 38 37 37 36 36 36 38 41 44 46 47 45 46 47 51 52 51 49 45 44 44 45 46 47 49 49 48 49 49 45 41 41 42 44 46 49 55
19 22 19 16 14 13 14 16 18 17 17 16 15 13 16 27 38 40 39 39 38 37 39 42 43 45 47 47 47 48 46 44 44 45 48 50 50 50 52 54 52 49 47 45 44 44 42 40 42 44 44 45 45 45 44 44 44 43 42 41 40 42 43 42 43 44 46 47 49 50 51 49 48 49 49 48 47 45 44 43 44 46 48 51 53 53 54 55 54 51 46 44 45 46 45 45 50
19 21 19 17 14 15 17 18 18 17 17 16 15 17 21 28 35 41 43 43 43 42 43 45 46 48 50 51 51 50 47 45 45 46 48 50 51 51 52 53 53 50 44 42 44 45 43 39 39 43 43 44 45 45 45 46 45 45 43 44 45 49 50 49 49 50 49 48 48 49 49 49 49 48 47 45 43 42 43 44 45 46 49 52 54 55 56 59 59 55 51 49 50 51 50 47 48
19 21 21 18 16 18 18 18 18 17 18 16 19 30 33 30 35 43 46 45 45 45 45 48 49 50 49 50 52 51 48 46 45 45 47 49 50 51 53 52 50 49 42 41 45 47 44 38 37 41 42 44 45 46 47 48 47 46 47 49 51 55 55 52 50 49 48 47 48 49 48 48 47 46 44 42 41 42 44 45 46 47 49 51 52 54 57 59 59 56 54 54 54 55 55 52 50
19 20 21 18 17 19 18 19 18 17 18 16 22 36 36 28 33 43 46 45 46 47 48 50 52 52 49 49 51 51 49 47 47 47 48 50 52 53 52 49 45 44 42 42 45 47 44 37 36 39 43 45 47 49 50 49 49 52 53 53 55 56 53 49 47 46 46 46 47 47 45 44 44 42 41 40 42 43 44 44 45 46 48 50 50 53 57 59 59 56 57 58 57 57 57 56 54
18 21 21 18 17 18 19 18 18 18 18 17 25 36 32 26 34 45 47 46 47 48 50 52 53 53 52 53 56 55 51 52 54 52 52 52 54 54 51 46 44 43 43 44 46 47 44 38 35 39 44 49 53 53 51 50 52 56 56 56 56 54 49 46 45 44 44 45 45 43 41 40 39 37 37 38 39 40 40 41 41 42 45 46 47 50 55 59 57 54 56 58 59 58 56 58 58
18 21 21 19 18 18 19 18 18 18 17 20 27 32 28 25 37 50 50 48 50 50 51 52 54 54 56 57 60 58 53 56 60 58 57 56 54 51 49 47 46 46 45 45 46 48 47 40 36 40 48 53 56 57 53 51 53 55 55 55 53 50 47 45 44 42 42 42 41 39 38 37 36 35 34 34 35 35 35 36 37 39 41 42 44 45 48 50 49 52 58 60 61 61 57 57 58
18 22 22 20 20 20 19 18 19 18 18 23 25 28 26 23 34 49 52 51 50 51 52 54 58 58 58 58 59 59 56 56 61 64 64 61 57 52 49 49 47 47 48 48 49 50 49 47 44 46 50 54 56 57 55 53 52 52 52 51 49 47 45 43 41 39 39 39 38 38 37 36 36 35 34 34 33 33 33 34 35 36 38 40 43 44 45 45 46 52 56 55 54 56 56 56 57
18 21 23 23 20 21 21 19 19 17 20 25 22 23 23 23 35 47 52 55 54 54 54 56 62 61 58 57 58 59 57 55 59 65 68 67 63 55 50 49 48 49 51 53 54 53 51 53 55 54 53 55 56 56 55 52 50 49 50 50 48 46 43 40 39 38 37 37 37 38 38 37 37 36 35 34 34 33 34 34 34 36 39 42 45 46 47 48 49 50 51 50 50 51 54 56 58
21 21 25 26 21 21 22 20 20 18 20 23 19 20 23 29 40 47 51 55 56 58 56 56 61 61 57 57 59 60 57 55 57 63 68 67 61 54 52 53 52 50 51 54 55 55 54 56 60 61 60 58 55 54 52 50 48 48 50 49 46 43 40 38 37 38 38 38 38 37 38 37 36 35 35 34 34 34 33 34 36 39 41 42 43 44 46 48 49 49 49 50 52 52 53 56 58
23 22 26 27 21 19 20 19 20 18 19 20 19 24 31 37 42 46 52 53 54 59 60 58 58 58 58 58 59 57 55 55 58 63 65 60 55 55 57 57 55 50 51 54 55 57 57 57 60 64 65 60 55 53 51 50 49 49 49 45 42 39 37 37 38 39 38 37 37 36 36 35 34 34 35 35 36 36 37 38 40 42 42 42 41 41 42 44 46 46 46 47 49 52 54 55 56
22 21 25 27 23 19 18 19 20 19 19 20 22 28 34 37 40 44 52 55 55 58 58 58 58 58 59 59 58 55 53 55 58 64 64 58 57 58 58 59 57 52 51 54 58 60 59 58 62 67 65 59 55 55 53 52 51 48 45 41 39 37 36 37 38 39 38 37 36 35 35 35 35 34 35 36 39 41 43 44 44 44 45 45 44 42 41 43 44 44 44 44 45 46 49 52 54
21 22 25 27 23 20 19 19 19 19 19 20 22 26 29 34 40 45 51 54 55 57 56 55 56 58 60 61 59 56 54 55 58 62 63 60 59 60 59 60 58 52 51 55 60 62 58 58 63 68 66 60 57 56 53 50 47 44 41 39 38 37 36 37 38 38 38 38 37 36 35 35 35 35 34 35 37 41 44 44 44 43 43 44 43 43 43 43 43 43 43 43 43 43 44 46 50
22 26 29 27 23 21 20 19 19 19 19 20 20 23 31 39 42 44 50 52 52 56 59 59 58 57 60 62 61 59 55 56 61 64 63 61 59 58 59 59 57 52 52 56 60 60 57 58 62 64 65 63 59 54 49 45 42 42 40 38 37 36 37 38 38 38 38 38 38 35 35 35 35 35 33 33 34 37 40 41 41 40 39 38 38 39 41 41 41 42 42 41 41 41 42 43 46
22 25 28 27 25 23 21 20 20 19 19 20 21 28 37 41 40 41 46 49 49 52 55 64 66 60 56 57 59 58 56 61 67 66 63 61 59 58 57 57 56 55 55 58 60 57 56 59 61 61 62 62 56 50 46 43 41 40 38 37 37 38 38 37 36 36 37 37 37 35 35 34 35 34 33 33 33 34 36 36 37 37 37 35 34 35 36 38 39 40 40 41 41 40 41 42 45
22 23 26 27 26 25 22 20 21 20 20 20 23 33 41 40 39 40 43 45 45 45 44 53 68 67 56 52 56 57 58 66 69 65 61 60 59 58 56 55 56 57 58 60 59 56 56 59 60 59 59 58 52 49 45 42 39 38 38 38 39 38 36 35 34 35 35 35 36 35 34 34 35 35 34 34 33 33 34 34 34 34 34 34 33 33 34 35 37 40 42 43 43 42 42 42 44
23 24 26 28 28 25 22 22 23 22 21 21 22 29 36 39 39 38 40 40 40 41 41 48 65 72 62 52 52 55 60 66 66 62 59 58 58 57 55 56 58 59 61 64 60 57 58 60 60 59 58 55 49 46 42 40 39 38 38 38 37 36 34 34 34 35 35 35 35 34 33 34 34 34 34 33 32 33 33 32 32 31 31 32 32 33 34 35 36 38 42 44 45 46 46 46 47
24 26 27 29 28 25 22 23 24 23 22 22 23 25 27 33 41 43 43 42 41 41 49 58 63 70 70 60 55 59 63 65 63 61 59 59 59 57 56 57 60 63 66 65 60 57 60 61 61 59 54 50 47 44 41 40 39 39 38 37 36 35 35 35 36 37 37 35 35 33 32 32 32 32 32 31 31 31 31 31 30 30 30 31 31 32 32 33 34 36 39 42 45 46 47 48 50
24 25 27 28 28 25 23 23 24 25 25 23 25 26 25 29 41 48 48 49 46 40 49 61 61 66 74 71 68 67 67 66 63 61 61 62 61 58 56 58 62 66 66 61 56 57 60 60 59 57 52 48 47 45 43 41 41 42 41 39 39 38 39 40 39 38 36 34 33 32 31 31 31 31 30 30 30 30 30 30 30 30 30 30 30 31 31 31 33 34 37 40 43 46 49 52 54
23 24 26 28 28 26 24 24 25 26 25 22 23 25 27 30 37 44 47 51 52 44 44 52 56 62 70 76 77 72 67 64 61 61 62 63 61 58 58 61 63 64 61 57 57 60 60 58 57 55 52 50 49 48 46 45 44 45 44 44 44 44 43 42 39 36 34 31 30 30 30 30 29 29 28 28 28 28 28 28 28 29 29 30 30 29 28 29 30 31 34 37 43 50 55 59 60
22 24 26 28 28 27 25 24 25 27 25 24 23 24 28 31 32 41 46 51 56 51 45 48 53 59 66 74 79 74 65 60 60 63 65 64 63 60 62 64 63 62 60 60 63 65 62 60 57 57 57 54 52 52 49 47 47 47 47 47 47 47 44 41 38 34 32 30 29 28 27 26 25 25 24 25 25 24 24 25 26 27 27 27 26 25 26 28 31 33 36 41 50 59 65 68 68
22 24 26 28 28 26 26 24 26 28 26 28 28 25 27 29 30 40 49 54 59 54 49 55 60 63 67 70 75 75 66 61 62 65 67 69 67 66 67 67 66 63 61 62 67 68 64 63 61 60 60 57 53 52 49 47 48 49 49 48 48 47 43 39 36 33 31 30 28 26 24 23 22 22 23 23 23 23 23 25 26 26 25 24 24 25 29 32 35 39 45 53 61 67 71 74 75
21 23 26 28 26 26 26 25 28 29 26 28 30 27 26 30 34 41 50 56 59 55 50 54 61 67 69 69 73 75 68 63 65 67 71 73 71 70 70 69 68 65 62 64 66 66 64 64 65 62 58 55 52 50 49 48 48 48 48 48 46 44 40 36 34 31 29 28 27 25 23 23 22 23 24 24 24 24 25 26 26 25 23 23 25 29 32 35 38 44 53 62 69 72 73 74 75
19 22 25 27 28 29 27 27 28 28 29 29 29 28 27 32 39 44 51 55 53 48 46 50 59 68 71 70 70 71 67 64 66 68 70 71 68 68 68 67 66 63 63 64 64 64 63 64 65 61 55 52 50 49 49 48 47 47 47 46 44 41 38 35 33 30 28 27 26 24 24 23 23 24 24 24 25 26 27 27 25 24 23 25 29 32 35 36 40 47 57 65 73 77 76 75 75
18 21 23 24 29 31 30 33 32 31 35 33 29 30 28 30 38 43 47 47 42 40 42 48 59 66 68 66 65 67 65 64 67 67 66 67 66 64 65 66 62 60 62 63 62 62 63 63 62 58 54 51 49 48 48 46 46 47 47 45 43 40 38 36 33 30 28 26 24 23 23 23 25 25 25 25 26 27 27 26 24 23 24 28 31 34 36 38 41 48 59 68 75 77 77 77 77
19 21 22 23 30 30 29 31 30 33 38 33 30 31 29 29 35 39 40 37 36 39 40 46 55 60 60 60 61 63 64 65 68 67 64 65 65 63 64 63 58 57 61 62 60 61 62 61 57 55 53 50 48 48 46 45 45 46 47 46 43 40 38 35 32 31 28 25 23 23 24 25 25 26 26 26 26 27 26 24 24 24 27 30 32 34 37 39 41 48 60 70 75 77 77 78 78
20 23 22 24 29 28 27 32 34 38 37 31 33 33 30 31 33 37 40 37 37 39 38 42 50 54 56 58 60 61 63 66 68 66 64 64 64 65 64 61 58 59 62 61 59 60 60 57 55 53 51 48 46 46 45 45 46 47 48 46 42 39 36 33 31 30 27 24 26 27 27 27 26 25 26 27 26 26 25 24 24 25 27 30 31 34 38 41 44 50 61 72 78 79 79 78 78
20 22 22 24 30 28 30 36 39 37 32 31 35 33 32 36 37 40 43 39 38 40 40 44 48 51 56 58 60 61 62 66 67 65 64 64 67 69 67 64 63 63 63 60 59 59 58 55 53 51 48 46 47 46 46 46 47 49 49 44 40 37 35 32 30 29 27 27 29 30 30 29 28 29 29 28 27 26 25 25 25 25 26 28 30 34 39 43 47 54 64 75 81 82 81 79 78
20 21 21 24 29 28 29 35 35 32 31 33 35 34 38 44 44 43 44 43 42 41 41 46 48 50 55 59 61 62 63 65 67 65 64 67 70 71 70 67 67 66 64 61 58 58 58 56 53 51 49 48 48 47 47 49 51 51 46 41 39 35 32 30 28 27 27 28 29 30 30 31 31 31 31 28 28 26 26 26 26 26 26 27 28 34 40 43 48 55 64 75 83 86 85 82 79
21 21 22 22 24 27 30 34 35 34 34 36 41 48 53 51 48 46 44 44 45 43 43 47 52 52 53 59 61 62 65 65 65 67 67 69 71 71 71 70 70 71 69 66 63 61 60 58 56 53 52 49 48 48 48 51 50 47 42 39 36 32 29 28 27 26 28 29 30 30 31 32 32 33 31 29 28 27 27 27 26 26 26 27 28 33 40 44 47 54 63 72 80 87 88 86 84
23 22 22 21 22 27 30 32 37 39 37 41 53 63 63 57 53 50 46 46 46 46 46 48 54 55 54 60 63 65 68 67 66 68 69 70 70 71 73 72 73 75 74 71 66 64 64 61 59 56 52 49 48 48 50 49 47 43 39 36 32 30 28 27 27 28 30 33 32 30 31 33 33 33 31 29 28 29 28 27 27 27 26 27 29 34 41 45 46 51 59 66 74 84 89 87 85
23 21 21 21 22 28 32 33 38 41 40 47 61 66 64 62 60 52 47 47 46 47 47 47 54 57 56 63 68 69 71 69 65 68 71 73 72 72 74 75 75 76 76 73 66 63 62 59 56 54 51 49 48 48 49 47 45 41 37 33 31 30 30 30 31 32 33 33 31 29 32 34 33 32 31 29 30 30 28 28 28 28 28 28 31 35 42 45 47 49 56 63 71 81 89 89 87
22 21 20 20 23 28 30 32 36 39 44 57 67 68 63 60 60 53 47 47 46 46 47 47 52 56 57 63 69 69 71 69 65 67 71 75 73 73 76 79 79 77 76 77 71 65 63 59 56 54 51 50 48 48 49 47 44 40 36 34 33 33 33 35 36 36 35 33 30 30 33 34 33 32 31 30 31 31 29 29 29 30 30 29 31 36 42 46 47 48 53 60 67 76 86 90 89
22 23 20 18 23 25 25 30 33 38 52 63 66 69 66 57 53 49 46 47 46 46 47 47 49 52 56 63 67 68 69 67 65 67 70 72 74 76 78 80 81 79 76 75 73 70 66 61 58 55 53 52 50 51 50 47 42 38 37 37 37 37 37 38 38 39 37 33 30 31 33 35 34 33 31 31 32 31 30 30 30 31 31 30 31 36 41 45 46 48 50 55 62 69 79 86 88
22 23 21 18 20 21 23 28 29 37 56 66 66 70 63 51 49 48 46 48 48 47 49 49 50 52 58 66 69 69 70 68 66 68 70 73 75 77 78 77 79 81 77 72 69 68 66 62 59 56 54 52 51 49 47 44 41 40 41 40 40 40 40 40 40 40 38 35 34 33 35 36 35 33 31 31 32 32 31 32 31 32 32 31 32 35 39 43 46 48 49 52 56 62 70 79 84
21 22 21 20 21 21 24 30 30 38 54 63 66 66 56 49 52 50 47 48 49 53 55 55 54 55 60 67 70 71 71 69 68 70 73 76 77 76 75 76 78 81 79 74 71 70 68 66 63 58 53 50 47 47 45 43 42 43 45 44 42 41 41 41 41 41 41 39 37 37 38 39 36 33 32 33 33 33 33 34 34 33 33 32 32 34 38 42 45 47 48 49 53 58 63 70 78